Location: Caltech
(34.1382°N, 118.1253°W)
Time: 18:06:37
(UTC-07:00)

ASTRO E2 - Visible Passes

Search period start: 31 October 2014 00:00
Search period end: 09 November 2014 23:00
Orbit: 532 x 540 km, 31.4° (Epoch: 31 October)

Date Brightness Start Highest point End Pass type
(mag) Time Alt. Az. Time Alt. Az. Time Alt. Az.
31 Oct 5.6 04:29:20 15° E 04:29:20 15° E 04:30:09 10° E visible
31 Oct 3.1 06:04:38 23° WSW 06:07:00 57° S 06:11:01 10° ESE visible
01 Nov 6.0 04:18:52 11° E 04:18:52 11° E 04:19:00 10° E visible
01 Nov 3.1 05:54:10 31° WSW 05:55:49 54° S 05:59:48 10° ESE visible
02 Nov 3.2 04:43:40 40° SW 04:44:37 50° S 04:48:34 10° ESE visible
03 Nov 3.2 04:33:10 45° SSW 04:33:24 45° SSW 04:37:18 10° ESE visible
04 Nov 3.7 04:22:41 38° S 04:22:41 38° S 04:25:59 10° SE visible
05 Nov 4.4 04:12:13 27° SSE 04:12:13 27° SSE 04:14:37 10° SE visible
06 Nov 5.0 04:01:46 18° SSE 04:01:46 18° SSE 04:03:10 10° SE visible
07 Nov 5.6 03:51:20 12° SSE 03:51:20 12° SSE 03:51:39 10° SE visible
